Weather History for Shannon, Ireland

Change the Weather History Date:

Wednesday, July 18, 2012

  Actual Average Record
Temperature  
Mean Temperature 60 °F -  
Max Temperature 64 °F 67 °F 86 °F (2006)
Min Temperature 55 °F 53 °F 48 °F (1997)
Degree Days  
Heating Degree Days 6    
Growing Degree Days 10 (Base 50)    
Moisture  
Dew Point 57 °F    
Average Humidity 91    
Maximum Humidity 100    
Minimum Humidity 69    
Precipitation  
Precipitation 0.08 in 0.09 in - ()
Sea Level Pressure  
Sea Level Pressure 29.89 in    
Wind  
Wind Speed 12 mph ()    
Max Wind Speed 23 mph    
Max Gust Speed -    
Visibility 5.8 miles    
Events Rain    
Averages and records for this station are not official NWS values.
T = Trace of Precipitation, MM = Missing Value Source: Averaged Metar Reports

Daily Weather History Graph

Daily Weather History Graph

Search for Another Location

Airport:

Trip Planner

Search our weather history database for the weather conditions in past years. The results will help you decide how hot, cold, wet, or windy it might be!

Date:

Astronomy

Jul. 18, 2012 Rise Set
Actual Time 5:34 AM IST 9:48 PM IST
Civil Twilight 4:48 AM IST 10:34 PM IST
Nautical Twilight 3:39 AM IST 11:42 PM IST
Astronomical Twilight 2:14 AM IST 1:09 AM IST
Moon 4:59 AM IST (7/18) 9:00 PM IST (7/18)
Length of Visible Light 17h 46m
Length of Day
16h 14m
Waning Crescent, 1% of the Moon is Illuminated
Jul 18
Waning Crescent
Jul 19
New
Jul 26
First Quarter
Aug 2
Full
Aug 9
Last Quarter

Hourly Weather History & Observations

Time (IST) Temp. Dew Point Humidity Pressure Visibility Wind Dir Wind Speed Gust Speed Precip Events Conditions
12:00 AM 59.0 °F 57.2 °F 94% 29.98 in 6.2 mi WSW 23.0 mph - N/A   Mostly Cloudy
12:30 AM 59.0 °F 57.2 °F 94% 29.98 in 6.2 mi WSW 16.1 mph - N/A   Mostly Cloudy
1:00 AM 58 °F 57 °F 94% 29.99 in 10 mi WSW 13.4 mph - -   Partly Cloudy
1:00 AM 57.2 °F 57.2 °F 100% 29.98 in 6.2 mi WSW 13.8 mph - N/A   Mostly Cloudy
1:30 AM 57.2 °F 57.2 °F 100% 29.98 in 6.2 mi WSW 10.4 mph - N/A   Mostly Cloudy
2:00 AM 59.0 °F 57.2 °F 94% 29.98 in 6.2 mi WSW 12.7 mph - N/A   Mostly Cloudy
2:30 AM 59.0 °F 57.2 °F 94% 29.95 in 6.2 mi WSW 11.5 mph - N/A   Mostly Cloudy
3:00 AM 59.0 °F 57.2 °F 94% 29.95 in 6.2 mi WSW 13.8 mph - N/A   Mostly Cloudy
3:30 AM 59.0 °F 57.2 °F 94% 29.95 in 6.2 mi West 12.7 mph - N/A   Mostly Cloudy
4:00 AM 57.2 °F 57.2 °F 100% 29.92 in 3.1 mi West 8.1 mph - N/A   Light Drizzle
4:30 AM 57.2 °F 57.2 °F 100% 29.92 in 3.7 mi WSW 4.6 mph - N/A   Light Drizzle
5:00 AM 57.2 °F 57.2 °F 100% 29.92 in 2.5 mi SW 4.6 mph - N/A   Light Drizzle
5:30 AM 57.2 °F 57.2 °F 100% 29.89 in 3.1 mi SW 4.6 mph - N/A   Light Drizzle
6:00 AM 57.2 °F 57.2 °F 100% 29.89 in 3.1 mi SW 3.5 mph - N/A   Light Drizzle
6:30 AM 57.2 °F 57.2 °F 100% 29.89 in 1.9 mi West 3.5 mph - N/A Rain Light Rain
7:00 AM 57 °F 57 °F 100% 29.89 in 2 mi NW 6.7 mph - - Rain Light Drizzle
7:00 AM 57.2 °F 57.2 °F 100% 29.89 in 1.9 mi NW 5.8 mph - N/A   Light Drizzle
7:30 AM 57.2 °F 57.2 °F 100% 29.89 in 1.9 mi NW 8.1 mph - N/A   Light Drizzle
8:00 AM 57.2 °F 57.2 °F 100% 29.89 in 2.8 mi NW 8.1 mph - N/A   Light Drizzle
8:30 AM 57.2 °F 57.2 °F 100% 29.89 in 2.8 mi WNW 4.6 mph - N/A   Light Drizzle
9:00 AM 57.2 °F 57.2 °F 100% 29.89 in 3.1 mi West 5.8 mph - N/A Rain Light Rain
9:30 AM 59.0 °F 57.2 °F 94% 29.89 in 5.6 mi West 8.1 mph - N/A   Light Drizzle
10:00 AM 59.0 °F 57.2 °F 94% 29.89 in 6.2 mi West 10.4 mph - N/A   Mostly Cloudy
10:30 AM 59.0 °F 57.2 °F 94% 29.89 in 6.2 mi West 11.5 mph - N/A   Mostly Cloudy
11:00 AM 60.8 °F 57.2 °F 88% 29.89 in 6.2 mi West 12.7 mph - N/A   Mostly Cloudy
11:30 AM 62.6 °F 57.2 °F 82% 29.89 in 6.2 mi West 12.7 mph - N/A   Mostly Cloudy
12:00 PM 62.6 °F 57.2 °F 82% 29.89 in 6.2 mi West 15.0 mph - N/A   Mostly Cloudy
12:30 PM 62.6 °F 57.2 °F 82% 29.86 in 6.2 mi West 16.1 mph - N/A   Mostly Cloudy
1:00 PM 63 °F 55 °F 69% 29.88 in 19 mi West 15.7 mph - -   Partly Cloudy
1:00 PM 62.6 °F 55.4 °F 77% 29.86 in 6.2 mi West 15.0 mph - N/A   Mostly Cloudy
1:30 PM 60.8 °F 57.2 °F 88% 29.89 in 6.2 mi WSW 16.1 mph - N/A   Scattered Clouds
2:00 PM 62.6 °F 57.2 °F 82% 29.86 in 6.2 mi West 15.0 mph - N/A   Mostly Cloudy
2:30 PM 62.6 °F 57.2 °F 82% 29.86 in 6.2 mi WSW 18.4 mph - N/A   Mostly Cloudy
3:00 PM 62.6 °F 57.2 °F 82% 29.86 in 6.2 mi West 19.6 mph - N/A Rain Light Rain Showers
3:30 PM 62.6 °F 57.2 °F 82% 29.86 in 6.2 mi West 17.3 mph - N/A   Mostly Cloudy
4:00 PM 62.6 °F 55.4 °F 77% 29.86 in 6.2 mi West 20.7 mph - N/A   Mostly Cloudy
4:30 PM 59.0 °F 57.2 °F 94% 29.86 in 4.3 mi West 17.3 mph - N/A Rain Light Rain Showers
5:00 PM 60.8 °F 57.2 °F 88% 29.86 in 6.2 mi WSW 17.3 mph - N/A   Mostly Cloudy
5:30 PM 60.8 °F 57.2 °F 88% 29.86 in 6.2 mi West 18.4 mph - N/A   Mostly Cloudy
6:00 PM 62.6 °F 55.4 °F 77% 29.86 in 6.2 mi West 21.9 mph - N/A   Scattered Clouds
6:30 PM 59.0 °F 57.2 °F 94% 29.86 in 6.2 mi West 15.0 mph - N/A   Mostly Cloudy
7:00 PM 60 °F 54 °F 75% 29.86 in 12 mi West 17.9 mph - - Rain Light Rain Showers
7:00 PM 60.8 °F 53.6 °F 77% 29.86 in 6.2 mi West 17.3 mph - N/A   Scattered Clouds
7:30 PM 57.2 °F 55.4 °F 94% 29.86 in 6.2 mi West 12.7 mph - N/A Rain Light Rain Showers
8:00 PM 59.0 °F 57.2 °F 94% 29.86 in 6.2 mi West 12.7 mph - N/A   Mostly Cloudy
8:30 PM 59.0 °F 55.4 °F 88% 29.86 in 6.2 mi West 12.7 mph - N/A   Scattered Clouds
9:00 PM 57.2 °F 53.6 °F 88% 29.86 in 6.2 mi West 10.4 mph - N/A   Partly Cloudy
9:30 PM 57.2 °F 55.4 °F 94% 29.86 in 6.2 mi West 13.8 mph - N/A Rain Light Rain Showers
10:00 PM 57.2 °F 55.4 °F 94% 29.86 in 6.2 mi West 10.4 mph - N/A   Mostly Cloudy
10:30 PM 57.2 °F 55.4 °F 94% 29.86 in 6.2 mi West 12.7 mph - N/A Rain Light Rain Showers
11:00 PM 55.4 °F 55.4 °F 100% 29.86 in 6.2 mi West 10.4 mph - N/A   Mostly Cloudy
11:30 PM 55.4 °F 55.4 °F 100% 29.86 in 6.2 mi West 10.4 mph - N/A   Scattered Clouds